Location: Bothwell
(42.3833°S, 147.0000°E)
Time: 01:25:59
(UTC+10:00)

BlueWalker 3 - Visible Passes

Search period start: 05 October 2024 00:00
Search period end: 15 October 2024 01:00
Orbit: 473 x 486 km, 53.2° (Epoch: 03 October)

Date Brightness Start Highest point End Pass type
(mag) Time Alt. Az. Time Alt. Az. Time Alt. Az.
05 Oct 4.2 19:00:44 10° WSW 19:03:39 20° SSW 19:06:34 10° SE visible
05 Oct 4.2 20:40:12 10° SW 20:42:46 17° S 20:43:24 16° SSE visible
06 Oct 4.3 21:12:00 10° SW 21:14:32 16° S 21:16:19 13° SE visible
06 Oct 5.1 22:49:56 10° SW 22:50:30 13° SW 22:50:30 13° SW visible
07 Oct 4.3 20:43:46 10° SW 20:46:16 16° S 20:48:45 10° SE visible
07 Oct 4.4 22:21:45 10° SW 22:23:22 20° SSW 22:23:22 20° SSW visible
08 Oct 4.3 20:15:29 10° SW 20:17:57 16° S 20:20:26 10° SE visible
08 Oct 3.7 21:53:33 10° SW 21:56:12 26° S 21:56:12 26° S visible
09 Oct 3.4 21:25:18 10° SW 21:28:37 27° SSE 21:29:00 26° SSE visible
09 Oct 5.2 23:03:04 10° WSW 23:03:11 11° WSW 23:03:11 11° WSW visible
10 Oct 3.5 20:57:00 10° SW 21:00:14 25° SSE 21:01:47 20° ESE visible
10 Oct 4.5 22:34:44 10° SW 22:35:58 19° WSW 22:35:58 19° WSW visible
11 Oct 3.6 20:28:41 10° SW 20:31:50 24° SSE 20:34:33 12° ESE visible
11 Oct 3.4 22:06:23 10° SW 22:08:44 35° WSW 22:08:44 35° WSW visible
12 Oct 3.7 20:00:18 10° SW 20:03:24 23° SSE 20:06:29 10° ESE visible
12 Oct 2.0 21:37:59 10° SW 21:41:30 73° SW 21:41:30 73° SW visible
13 Oct 1.8 21:09:34 10° SW 21:13:24 77° SE 21:14:16 51° ENE visible
14 Oct 1.9 20:41:07 10° SW 20:44:56 69° SE 20:47:04 24° ENE visible
14 Oct 4.5 22:20:02 10° W 22:21:15 15° WNW 22:21:15 15° WNW visible
